SCP
0 0 0 0 0 0 0 0 0 0 0 0 0 0 0 0 0 0 0 0 0 0 0 -0 -0 0 0 0 0 0 0 0 0 0 0 0 0 0 0 0 0 0 0
0 0 0 0 0 0 0 0 0 0 0 0 0 0 0 0 0 0 0 0 0 0 0 0 0 0 0 0 0 0 0 0 0 0 0 0 0 0 0 0 0 0 0
0 0 0 0 0 0 0 0 0 0 0 0 0 0 0 0 0 0 0 0 0 0 0 0 0 0 0 0 0 0 0 0 0 0 0 0 0 0 0 0 0 0 0
0 0 0 0 0 0 0 0 0 0 0 0 0 0 0 0 0 0 0 0 0 0 0 0 0 0 0 0 0 0 0 0 0 0 0 0 0 0 0 0 0 0 0
1 0 0 0 0 0 0 0 0 0 0 0 0 0 0 0 0 0 0 0 0 0 0 0 0 0 0 0 0 0 0 0 0 0 0 0 0 0 0 0 0 0 0
1 1 1 1 1 1 0 0 0 0 0 0 0 0 0 0 0 0 0 0 0 0 0 0 0 0 0 0 0 0 0 0 0 0 0 0 0 0 0 0 0 0 0
1 1 1 1 1 1 1 0 0 0 0 0 0 0 0 0 0 0 0 0 0 0 0 0 0 0 0 -0 0 0 0 0 0 0 0 0 0 0 0 0 0 0 0
1 1 1 1 1 1 1 0 0 0 0 0 0 0 0 0 0 0 0 0 0 0 0 0 0 0 -0 -0 -0 0 0 0 0 0 0 0 0 0 0 0 0 0 0
1 1 1 1 1 1 1 0 0 0 0 0 0 0 0 0 0 0 0 0 0 0 0 0 0 0 -0 -0 0 0 0 0 0 0 0 0 0 0 0 0 0 0 0
1 1 1 1 1 1 1 0 0 0 0 0 0 0 0 0 -0 -0 -0 0 0 0 0 0 0 0 0 0 0 0 0 0 0 0 0 0 0 0 0 0 0 0 0
1 1 1 1 1 1 1 1 0 0 0 0 0 0 0 0 -0 -0 -0 -0 0 0 0 0 0 0 0 0 0 0 0 0 0 0 0 0 0 0 0 0 0 0 0
1 1 1 1 1 1 1 1 0 0 0 0 0 0 0 0 -0 -0 -0 -0 -0 0 0 0 0 0 0 0 0 0 0 0 0 0 0 0 0 0 0 0 0 0 0
1 1 1 1 1 1 1 1 1 0 0 0 0 0 0 0 -0 -0 -0 -0 -0 -0 0 0 0 0 0 0 0 0 0 0 0 0 0 0 0 0 0 0 0 0 0
1 1 1 1 1 1 1 1 1 0 0 0 0 0 0 0 -0 -0 -0 -0 -0 -0 -0 0 0 0 0 0 0 0 0 0 0 0 0 0 0 0 0 0 0 0 0
1 1 1 1 1 1 1 1 1 0 0 0 0 0 0 0 -0 -0 -0 -0 -0 -0 -0 0 0 0 0 0 0 0 0 0 0 0 0 0 0 0 0 0 0 0 0
1 1 1 1 1 1 1 1 1 0 0 0 0 0 0 0 -0 -0 -0 -0 -0 -0 -0 0 0 0 0 0 0 0 0 0 0 0 0 0 0 0 0 0 0 0 0
1 1 1 1 1 1 1 1 0 0 0 0 0 0 0 0 0 0 -0 -0 -0 -0 0 0 0 0 0 0 0 0 0 0 0 0 0 0 0 0 0 0 0 0 0
1 1 1 1 1 1 0 0 0 0 0 0 0 0 0 0 0 0 0 0 0 0 0 0 0 0 0 0 0 0 -0 -0 0 0 0 0 0 0 0 0 0 0 0
1 1 1 1 1 0 0 0 0 0 0 0 0 0 0 0 0 0 0 0 0 0 0 0 0 0 0 0 0 0 -0 -0 -0 0 0 0 0 0 0 0 0 0 0
1 1 1 1 1 0 0 0 0 0 0 0 0 0 0 0 0 0 0 0 0 0 0 0 0 0 0 0 0 0 0 -0 -0 -0 -0 -0 0 0 0 0 0 0 0
0 0 1 1 0 0 0 0 0 0 0 0 0 0 0 0 0 0 0 0 0 0 0 0 0 0 0 0 0 0 0 0 -0 -0 -0 -0 -0 0 0 0 0 0 0
0 0 0 0 0 0 0 0 0 0 0 0 0 0 0 0 0 0 0 0 0 0 0 0 0 0 0 0 0 0 0 0 0 -0 -0 -0 -0 -0 -0 -0 0 0 0
0 0 0 0 0 0 0 0 0 0 0 0 0 0 0 0 0 0 0 0 0 0 0 0 0 0 0 0 0 0 0 0 0 0 -0 -0 -0 -0 -0 -0 0 0 0
0 0 0 0 0 0 0 0 0 0 0 0 0 0 0 0 0 0 0 0 0 0 0 0 0 0 0 0 0 0 0 0 0 0 0 0 -0 -0 -0 0 0 0 0
0 0 0 0 0 0 0 0 0 0 0 0 0 0 0 0 0 0 0 0 0 0 0 0 0 0 0 0 0 0 0 0 0 0 0 0 -0 0 0 0 0 0 0
0 0 0 0 0 0 0 0 0 0 0 0 0 0 0 0 0 0 0 0 0 0 0 0 0 0 0 0 0 0 0 0 0 0 0 0 -0 -0 0 0 0 0 0
Wind_Speed
9 10 17 17 17 17 18 18 18 18 18 18 17 17 16 16 15 14 13 13 12 12 11 11 11 11 11 11 11 12 12 12 13 14 14 14 15 15 15 15 15 12 16
14 13 18 18 18 18 18 18 17 17 17 17 17 16 16 15 15 14 13 13 12 12 12 11 11 11 12 12 11 12 12 12 13 13 14 13 14 15 15 15 14 10 15
16 13 16 18 18 18 17 17 17 17 17 16 16 16 15 15 14 14 13 13 12 12 12 12 12 11 12 11 11 11 12 12 12 13 12 8 10 14 14 14 14 14 14
16 12 14 19 19 18 17 17 16 16 16 16 15 15 14 14 13 13 13 12 12 12 12 12 12 12 11 11 11 11 11 12 13 12 7 7 7 13 14 14 14 13 14
14 11 14 21 19 18 18 17 16 16 15 15 14 14 14 13 13 13 13 12 12 12 12 12 12 11 11 10 10 10 11 12 12 10 6 6 6 12 13 13 13 13 13
13 11 14 21 19 19 18 17 16 16 15 14 14 13 13 13 12 12 12 12 11 11 11 11 11 11 10 9 9 9 10 11 10 7 6 6 6 10 13 12 12 12 12
12 10 13 20 20 19 18 17 16 15 15 14 13 12 12 12 12 12 12 11 11 11 11 10 10 10 9 8 7 8 9 11 7 6 5 5 6 10 12 12 12 12 12
14 11 12 20 20 19 18 17 16 15 14 14 13 12 12 11 11 11 11 11 10 10 10 9 9 8 7 6 6 7 9 11 8 7 6 5 7 9 11 11 11 11 11
12 10 9 11 14 18 18 17 16 15 14 13 13 12 11 11 10 10 10 10 10 9 9 8 8 7 6 5 6 7 9 11 7 5 6 4 7 9 11 11 10 11 11
9 9 8 8 8 8 10 16 16 15 14 13 13 12 11 11 10 10 8 8 9 8 8 7 7 6 6 5 5 7 9 10 6 5 4 5 9 9 10 10 10 10 10
10 7 7 8 7 7 7 12 13 14 14 12 10 12 9 4 4 5 6 7 7 7 6 5 5 5 5 4 4 7 7 4 5 4 3 7 9 9 10 10 10 10 9
13 10 7 8 8 7 8 6 4 5 6 5 4 5 4 3 3 4 4 7 6 6 5 4 4 4 4 2 3 5 3 4 4 3 3 8 9 9 9 9 9 9 9
13 12 10 9 8 7 5 5 3 3 3 4 5 5 4 3 2 2 1 1 1 2 2 2 3 2 2 1 2 2 3 3 2 2 3 7 8 9 9 9 9 9 9
12 12 10 9 8 7 5 5 4 3 3 3 4 5 4 2 2 2 1 1 1 1 2 2 1 2 2 2 2 2 3 2 2 2 3 7 7 8 8 9 8 8 8
12 12 11 10 9 7 6 5 5 4 4 4 3 4 4 3 3 2 1 1 1 1 2 2 1 1 1 1 1 2 3 3 2 2 1 5 6 7 7 8 8 8 8
12 12 11 11 10 8 6 5 5 5 4 4 4 4 4 3 3 3 2 2 2 1 2 2 2 1 1 1 1 1 1 2 2 2 1 2 4 5 6 7 8 8 8
11 10 9 10 9 9 8 7 6 5 5 4 4 4 5 4 4 3 3 2 2 2 2 2 2 2 1 1 1 1 1 1 1 1 1 1 1 3 5 6 7 8 8
9 10 10 10 10 8 7 6 5 5 5 4 4 4 5 5 5 4 3 3 2 2 2 3 2 2 1 1 1 1 1 0 1 1 1 1 1 1 3 5 6 6 8
10 11 11 9 10 8 6 5 5 5 5 4 4 4 5 5 6 4 3 3 3 3 2 3 2 2 1 1 1 1 1 1 0 1 1 1 1 2 2 3 5 5 7
9 10 11 10 9 8 5 4 3 4 4 3 4 4 6 5 6 5 3 4 4 3 3 2 3 2 2 1 1 2 2 1 1 1 1 1 1 2 1 1 1 2 4
8 10 10 9 9 8 6 5 5 4 4 3 3 5 6 6 6 5 4 4 4 4 4 4 3 2 2 1 2 2 3 2 2 1 1 0 1 1 1 1 1 1 1
10 10 10 10 9 8 6 5 3 3 3 3 3 4 5 6 6 6 6 5 4 4 4 4 3 3 2 1 2 2 2 3 3 2 1 0 1 1 1 1 1 1 1
10 11 10 10 9 8 7 5 4 3 3 2 2 3 4 5 6 5 6 5 5 4 4 4 4 4 3 1 1 3 3 2 1 2 2 2 1 0 1 1 1 1 2
9 9 8 9 9 9 9 8 8 6 5 5 4 3 3 4 5 6 6 6 5 4 4 4 4 3 4 2 1 1 1 2 2 0 2 2 2 1 1 1 1 1 1
8 8 8 8 8 9 10 10 9 5 4 3 4 5 4 3 4 5 6 5 5 4 5 4 4 4 3 4 3 2 2 2 1 2 1 2 2 1 1 1 1 1 1
6 6 7 7 8 8 10 9 9 9 7 6 6 6 4 3 3 4 5 5 5 4 5 4 4 5 3 3 3 3 3 3 3 2 2 1 1 2 2 1 1 1 1
Wind_Direction
157 158 154 148 140 133 127 124 121 120 119 120 121 122 124 125 126 126 124 122 120 118 114 111 109 110 111 111 111 111 112 114 116 116 115 114 113 111 110 108 106 106 108
149 155 155 150 143 136 131 128 125 123 123 123 123 125 126 126 127 127 125 123 122 119 114 111 110 111 111 112 112 113 115 116 117 118 117 115 115 114 112 111 110 111 110
146 153 154 151 145 139 134 131 129 127 126 126 126 127 128 128 128 127 126 125 124 120 115 112 111 112 113 114 115 115 115 116 117 114 110 107 113 115 116 115 114 113 113
146 150 152 152 148 143 138 136 133 131 130 129 129 130 130 130 130 129 127 126 124 120 117 115 113 112 113 116 117 116 116 115 114 109 101 109 115 119 118 116 116 116 114
145 147 157 153 150 146 143 141 138 136 134 133 133 133 133 132 132 130 129 127 125 121 118 116 115 113 114 115 117 118 119 119 113 104 99 98 105 122 121 120 120 118 117
145 149 159 155 153 150 147 144 142 141 139 138 137 136 135 134 133 132 131 128 126 122 119 117 116 115 114 114 119 123 126 123 111 106 103 107 114 126 125 125 122 120 119
146 151 158 157 155 153 151 148 146 145 144 143 141 140 138 136 135 133 133 130 127 124 122 120 117 115 114 114 120 131 134 129 120 116 113 115 125 130 129 127 125 124 123
149 151 157 159 157 156 155 152 151 150 149 148 147 146 142 141 139 136 136 133 130 127 124 121 117 114 111 107 113 130 134 132 130 130 126 128 136 134 133 130 130 129 126
149 150 154 158 160 160 158 157 156 155 155 153 153 151 149 146 144 143 140 138 134 131 128 124 119 111 103 99 109 127 133 132 128 134 140 138 143 142 139 137 136 134 132
146 151 152 151 152 155 159 161 161 159 159 158 157 156 155 153 150 147 142 143 140 136 133 127 120 110 100 96 107 124 132 126 129 132 135 154 155 150 146 144 143 140 139
156 154 153 150 146 147 152 166 164 163 163 162 162 163 155 132 130 140 152 154 150 145 140 134 124 111 97 85 106 118 118 120 132 132 142 165 165 160 154 152 151 149 148
166 165 160 155 151 151 162 156 151 153 154 149 142 143 120 115 131 144 169 167 162 155 147 138 122 101 87 64 89 107 111 129 133 142 164 173 172 169 164 162 161 160 158
168 170 167 161 156 158 152 146 141 132 134 137 137 130 123 119 123 123 119 145 137 132 93 91 84 79 84 89 93 109 128 132 136 152 175 182 181 179 176 174 172 171 168
172 174 169 164 160 160 151 151 144 140 143 147 146 143 137 138 144 142 139 117 94 83 94 79 74 73 81 92 116 126 134 137 148 154 191 193 190 189 186 185 184 184 180
177 175 170 166 166 163 154 159 156 152 155 154 151 153 153 156 165 163 159 143 133 113 116 107 93 90 84 80 114 139 153 149 164 169 194 199 192 194 194 197 196 195 194
181 178 172 173 170 166 164 162 158 158 157 156 160 166 165 164 166 166 167 161 157 147 136 128 121 109 82 83 101 117 145 150 155 172 183 216 214 208 209 209 206 206 205
181 172 170 172 167 170 169 168 163 163 160 165 169 171 174 172 171 165 163 175 174 146 131 115 101 89 94 89 85 71 95 144 159 190 188 197 242 236 226 223 218 215 216
171 167 172 180 173 175 173 170 162 162 164 167 166 170 176 173 167 162 166 178 165 142 133 126 112 101 90 89 81 49 49 40 218 216 200 203 225 249 247 241 232 225 226
178 172 175 179 173 173 168 163 158 156 163 163 160 166 171 170 168 162 166 165 155 141 137 139 109 119 127 120 111 59 32 12 298 244 219 216 219 236 246 264 253 239 235
181 174 173 173 167 161 154 145 144 146 155 157 161 169 167 166 165 158 158 159 151 139 134 125 120 99 102 114 88 56 21 3 11 345 268 237 225 224 221 244 260 260 248
176 172 174 172 169 163 163 167 167 172 167 163 168 169 168 164 162 159 159 158 156 154 153 143 123 113 88 93 84 38 11 16 22 3 345 327 286 265 213 219 225 224 253
177 174 180 181 173 172 170 162 153 146 155 155 158 160 168 163 161 166 159 162 160 145 142 144 133 124 98 89 118 98 28 357 359 12 2 319 300 319 280 250 224 210 226
178 181 185 181 173 169 161 142 124 106 98 125 159 168 172 166 166 162 164 159 159 155 158 161 153 145 142 96 98 139 146 209 309 342 1 7 345 315 285 283 241 231 222
185 178 176 174 172 169 162 161 165 171 174 182 169 163 157 162 165 163 160 159 159 157 158 168 160 149 143 147 113 81 122 151 152 357 340 353 351 339 322 302 283 262 248
176 172 172 172 177 172 169 171 173 173 167 152 139 148 150 155 166 163 158 157 159 160 163 160 154 155 152 154 156 146 121 89 113 145 208 325 341 334 316 285 262 254 248
167 170 172 173 177 175 172 174 175 170 163 158 155 159 157 155 160 163 159 161 162 161 163 164 160 157 157 152 154 158 158 159 169 155 166 218 290 312 318 308 275 257 247